TimeMDT,TemperatureF,Dew PointF,Humidity,Sea Level PressureIn,VisibilityMPH,Wind Direction,Wind SpeedMPH,Gust SpeedMPH,PrecipitationIn,Events,Conditions,WindDirDegrees,DateUTC
12:15 AM,41.0,17.6,39,30.00,10.0,North,10.4,-,N/A,,Clear,350,2012-10-24 06:15:00
12:35 AM,39.2,17.6,42,30.00,10.0,North,9.2,-,N/A,,Clear,350,2012-10-24 06:35:00
12:55 AM,39.2,17.6,42,30.00,10.0,North,4.6,-,N/A,,Clear,360,2012-10-24 06:55:00
1:15 AM,39.2,17.6,42,30.00,10.0,NNW,5.8,-,N/A,,Clear,340,2012-10-24 07:15:00
1:35 AM,39.2,17.6,42,30.00,10.0,North,4.6,-,N/A,,Clear,10,2012-10-24 07:35:00
1:55 AM,37.4,17.6,45,30.00,10.0,Calm,Calm,-,N/A,,Clear,0,2012-10-24 07:55:00
2:15 AM,37.4,17.6,45,30.00,10.0,Calm,Calm,-,N/A,,Clear,0,2012-10-24 08:15:00
2:35 AM,37.4,17.6,45,30.00,10.0,NW,4.6,-,N/A,,Clear,310,2012-10-24 08:35:00
2:55 AM,35.6,17.6,48,30.01,10.0,South,4.6,-,N/A,,Clear,180,2012-10-24 08:55:00
3:15 AM,33.8,17.6,52,30.00,10.0,Calm,Calm,-,N/A,,Clear,0,2012-10-24 09:15:00
3:35 AM,33.8,19.4,56,30.00,10.0,West,3.5,-,N/A,,Clear,270,2012-10-24 09:35:00
3:55 AM,33.8,19.4,56,29.99,10.0,Calm,Calm,-,N/A,,Clear,0,2012-10-24 09:55:00
4:15 AM,33.8,17.6,52,29.99,10.0,Calm,Calm,-,N/A,,Clear,0,2012-10-24 10:15:00
4:35 AM,30.2,17.6,60,30.00,10.0,Calm,Calm,-,N/A,,Clear,0,2012-10-24 10:35:00
4:55 AM,30.2,17.6,60,29.99,10.0,Calm,Calm,-,N/A,,Clear,0,2012-10-24 10:55:00
5:15 AM,32.0,19.4,60,29.99,10.0,North,3.5,-,N/A,,Clear,10,2012-10-24 11:15:00
5:35 AM,32.0,19.4,60,29.99,10.0,NE,4.6,-,N/A,,Clear,40,2012-10-24 11:35:00
5:55 AM,32.0,19.4,60,29.99,10.0,North,4.6,-,N/A,,Clear,10,2012-10-24 11:55:00
6:15 AM,30.2,17.6,60,29.99,10.0,North,3.5,-,N/A,,Clear,10,2012-10-24 12:15:00
6:35 AM,28.4,15.8,59,29.99,10.0,North,8.1,-,N/A,,Clear,10,2012-10-24 12:35:00
6:55 AM,30.2,19.4,64,29.99,10.0,ESE,4.6,-,N/A,,Clear,120,2012-10-24 12:55:00
7:15 AM,30.2,17.6,60,29.98,10.0,NE,4.6,-,N/A,,Clear,40,2012-10-24 13:15:00
7:35 AM,30.2,17.6,60,29.98,10.0,Calm,Calm,-,N/A,,Clear,0,2012-10-24 13:35:00
7:55 AM,28.4,17.6,64,29.98,10.0,NNE,3.5,-,N/A,,Clear,30,2012-10-24 13:55:00
8:35 AM,37.4,23.0,56,29.98,10.0,NNW,6.9,-,N/A,,Clear,340,2012-10-24 14:35:00
8:55 AM,39.2,23.0,52,29.98,10.0,NNW,9.2,-,N/A,,Clear,340,2012-10-24 14:55:00
9:15 AM,39.2,24.8,56,29.98,10.0,North,3.5,-,N/A,,Clear,350,2012-10-24 15:15:00
9:35 AM,42.8,24.8,49,29.97,10.0,North,6.9,-,N/A,,Clear,10,2012-10-24 15:35:00
9:55 AM,46.4,26.6,46,29.96,10.0,North,9.2,-,N/A,,Clear,10,2012-10-24 15:55:00
10:15 AM,51.8,26.6,38,29.95,10.0,North,8.1,-,N/A,,Clear,360,2012-10-24 16:15:00
10:35 AM,53.6,24.8,33,29.94,10.0,North,5.8,-,N/A,,Clear,350,2012-10-24 16:35:00
10:55 AM,55.4,23.0,29,29.93,10.0,West,4.6,-,N/A,,Clear,280,2012-10-24 16:55:00
11:15 AM,57.2,21.2,25,29.91,10.0,NW,6.9,-,N/A,,Scattered Clouds,310,2012-10-24 17:15:00
11:35 AM,57.2,21.2,25,29.89,10.0,West,9.2,-,N/A,,Mostly Cloudy,260,2012-10-24 17:35:00
11:55 AM,55.4,19.4,25,29.89,10.0,West,8.1,-,N/A,,Overcast,270,2012-10-24 17:55:00
12:15 PM,55.4,19.4,25,29.87,10.0,NW,5.8,-,N/A,,Overcast,310,2012-10-24 18:15:00
12:35 PM,53.6,21.2,28,29.86,10.0,NNE,9.2,-,N/A,,Overcast,20,2012-10-24 18:35:00
12:55 PM,55.4,21.2,26,29.84,10.0,NNE,12.7,-,N/A,,Overcast,20,2012-10-24 18:55:00
1:15 PM,53.6,21.2,28,29.82,10.0,North,8.1,-,N/A,,Overcast,360,2012-10-24 19:15:00
1:35 PM,55.4,19.4,25,29.80,10.0,ENE,5.8,-,N/A,,Overcast,70,2012-10-24 19:35:00
1:55 PM,55.4,19.4,25,29.79,10.0,South,5.8,-,N/A,,Overcast,180,2012-10-24 19:55:00
2:15 PM,59.0,19.4,22,29.78,10.0,West,18.4,26.5,N/A,,Mostly Cloudy,260,2012-10-24 20:15:00
2:35 PM,57.2,15.8,20,29.78,10.0,West,23.0,28.8,N/A,,Mostly Cloudy,260,2012-10-24 20:35:00
2:55 PM,57.2,15.8,20,29.77,10.0,West,21.9,32.2,N/A,,Overcast,270,2012-10-24 20:55:00
3:15 PM,55.4,15.8,21,29.78,10.0,West,18.4,33.4,N/A,,Overcast,270,2012-10-24 21:15:00
3:35 PM,55.4,17.6,23,29.78,10.0,West,19.6,31.1,N/A,,Overcast,270,2012-10-24 21:35:00
3:55 PM,55.4,15.8,21,29.79,10.0,West,24.2,41.4,N/A,,Overcast,270,2012-10-24 21:55:00
4:15 PM,55.4,17.6,23,29.78,10.0,West,18.4,27.6,N/A,,Overcast,260,2012-10-24 22:15:00
4:35 PM,53.6,15.8,22,29.77,10.0,West,18.4,29.9,N/A,,Overcast,270,2012-10-24 22:35:00
4:55 PM,53.6,15.8,22,29.78,10.0,WSW,23.0,29.9,N/A,,Overcast,250,2012-10-24 22:55:00
5:15 PM,53.6,14.0,21,29.76,10.0,WSW,25.3,39.1,N/A,,Overcast,250,2012-10-24 23:15:00
5:35 PM,-9999,-9999,N/A,29.77,10.0,West,23.0,33.4,N/A,,Overcast,270,2012-10-24 23:35:00
5:55 PM,51.8,12.2,21,29.82,10.0,West,25.3,33.4,N/A,,Overcast,280,2012-10-24 23:55:00
6:15 PM,48.2,17.6,30,29.85,10.0,West,26.5,36.8,N/A,,Mostly Cloudy,280,2012-10-25 00:15:00
6:35 PM,-9999,-9999,N/A,29.88,10.0,WNW,18.4,36.8,N/A,,Mostly Cloudy,290,2012-10-25 00:35:00
6:55 PM,44.6,21.2,39,29.92,10.0,WNW,15.0,20.7,N/A,,Mostly Cloudy,290,2012-10-25 00:55:00
7:15 PM,42.8,21.2,42,29.94,10.0,WSW,10.4,-,N/A,,Mostly Cloudy,250,2012-10-25 01:15:00
7:35 PM,39.2,24.8,56,29.96,10.0,SW,18.4,23.0,N/A,,Overcast,230,2012-10-25 01:35:00
7:55 PM,35.6,26.6,70,29.99,10.0,SW,11.5,20.7,N/A,,Overcast,230,2012-10-25 01:55:00
8:15 PM,35.6,26.6,70,30.01,10.0,SW,12.7,18.4,N/A,,Overcast,230,2012-10-25 02:15:00
8:35 PM,35.6,26.6,70,30.02,10.0,SW,11.5,17.3,N/A,,Mostly Cloudy,230,2012-10-25 02:35:00
8:55 PM,35.6,24.8,65,30.02,10.0,SSW,12.7,-,N/A,,Overcast,210,2012-10-25 02:55:00
9:15 PM,33.8,26.6,75,30.03,10.0,SSW,12.7,-,N/A,,Overcast,200,2012-10-25 03:15:00
9:35 PM,33.8,24.8,70,30.03,10.0,SSW,12.7,16.1,N/A,,Mostly Cloudy,210,2012-10-25 03:35:00
9:55 PM,33.8,24.8,70,30.05,10.0,SSW,9.2,-,N/A,,Partly Cloudy,210,2012-10-25 03:55:00
10:15 PM,33.8,24.8,70,30.04,10.0,SSW,6.9,-,N/A,,Partly Cloudy,200,2012-10-25 04:15:00
10:35 PM,33.8,24.8,70,30.04,10.0,SW,8.1,-,N/A,,Clear,230,2012-10-25 04:35:00
10:55 PM,33.8,21.2,60,30.05,10.0,SW,6.9,-,N/A,,Clear,220,2012-10-25 04:55:00
11:15 PM,33.8,21.2,60,30.05,10.0,SSW,6.9,-,N/A,,Clear,210,2012-10-25 05:15:00
11:35 PM,32.0,21.2,64,30.05,10.0,SSW,5.8,-,N/A,,Clear,210,2012-10-25 05:35:00
11:55 PM,32.0,21.2,64,30.05,10.0,SSW,8.1,-,N/A,,Clear,210,2012-10-25 05:55:00